Regional Weather Roundup
Issued by NWS

Home | Current Version | Previous Version | Text Only | Print | Product List | Glossary On
Versions: 1 2 3 4 5 6 7 8 9 10 11 12 13 14 15 16 17 18 19 20 21 22 23 24 25 26 27 28 29 30 31 32 33 34 35 36 37 38 39 40 41 42 43 44 45 46 47 48 49 50
000
ASUS43 KTOP 020108
RWRKS

WEATHER ROUNDUP FOR KANSAS
NATIONAL WEATHER SERVICE GOODLAND KS
800 PM CDT TUE SEP 01 2015

NOTE:  "FAIR" INDICATES FEW OR NO CLOUDS BELOW 12,000 FEET WITH NO
SIGNIFICANT WEATHER AND/OR OBSTRUCTIONS TO VISIBILITY.

KSZ001>006-013>018-027>032-041>047-020200-
NORTHWEST KANSAS

CITY           SKY/WX    TMP DP  RH WIND       PRES   REMARKS
GOODLAND       PTCLDY    83  57  41 S12       29.96R
HAYS           PTCLDY    91  57  31 S15       29.87S
HILL CITY      CLEAR     90  56  31 S8        29.88S
RUSSELL        PTCLDY    91  58  32 S14       29.86F
$$

KSZ061>065-074>080-084>089-020200-
SOUTHWEST KANSAS

CITY           SKY/WX    TMP DP  RH WIND       PRES   REMARKS
DODGE CITY     CLEAR     86  54  33 S12       29.93S
ELKHART          N/A     83  57  41 SW10        N/A
GARDEN CITY    MOCLDY    84  58  40 S8        29.92S
GREAT BEND     PTCLDY    90  59  35 S13       29.89R
LIBERAL        MOCLDY    88  54  31 S12       29.96S
PRATT          CLEAR     88  54  31 MISG      29.94S
$$

KSZ066>073-081>083-090>101-020200-
SOUTHEAST KANSAS

CITY           SKY/WX    TMP DP  RH WIND       PRES   REMARKS
CHANUTE        PTCLDY    78  69  73 SE6       30.00F
COFFEYVILLE    CLEAR     79  70  74 SE7       29.99S
HUTCHINSON     CLEAR     85  63  47 SE13      29.93R
MEDICINE LODGE   N/A     89  60  37 S8        29.92R
NEWTON         CLEAR     82  63  51 SE10      29.98S
PARSONS        CLEAR     79  70  74 CALM      30.01S
WICHITA INTL   PTCLDY    84  67  56 SE16      29.94R
WICHITA JABRA  CLEAR     83  67  58 SE12      29.96R
WICHITA MCCONL CLEAR     84  67  56 SE14      29.96R
WINFIELD       CLEAR     84  67  56 SE9       29.97S
$$

KSZ007>012-019>026-033>040-048>060-102>105-020200-
NORTHEAST KANSAS

CITY           SKY/WX    TMP DP  RH WIND       PRES   REMARKS
CONCORDIA      PTCLDY    84  63  49 S13       29.89S
EMPORIA        CLEAR     80  65  59 SE13      29.97S
LAWRENCE       CLEAR     78  67  68 SE8       29.98R
MANHATTAN      PTCLDY    84  66  54 S12       29.92S
MARYSVILLE     MOCLDY   N/A N/A N/A SE9       29.91S
OLATHE IND     CLEAR     78  68  71 S7        30.01S
OLATHE EXE     CLEAR     77  68  73 S6        30.00S
SALINA         CLEAR     87  63  44 SE16      29.90R
TOPEKA BILLARD CLEAR     81  68  64 SE9       29.97R
TOPEKA FORBES  CLEAR     81  68  64 SE9       29.98R
$$



USA.gov is the U.S. government's official web portal to all federal, state and local government web resources and services.